Montpelier, VT

7:27 AM EDT on July 25, 2017 (GMT -0400)
Knapp State

Weather History for KMPV - November, 2014

Change the Weather History Date:

Wednesday, November 19, 2014

  Actual Average Record
Temperature  
Mean Temperature 22 °F 34 °F  
Max Temperature 27 °F 42 °F 68 °F (1953)
Min Temperature 17 °F 26 °F 5 °F (1956)
Degree Days  
Heating Degree Days 43 31  
Month to date heating degree days 566 523  
Since 1 July heating degree days 1448 1479  
Cooling Degree Days 0 0  
Month to date cooling degree days 0 0  
Year to date cooling degree days 188 264  
Moisture  
Dew Point 12 °F    
Average Humidity 71    
Maximum Humidity 91    
Minimum Humidity 50    
Precipitation  
Precipitation 0.03 in 0.11 in 0.82 in (1948)
Month to date precipitation 1.07 2.03  
Year to date precipitation 32.09 33.39  
Sea Level Pressure  
Sea Level Pressure 29.97 in    
Wind  
Wind Speed 7 mph (SW)    
Max Wind Speed 18 mph    
Max Gust Speed 30 mph    
Visibility 6 miles    
Events Fog , Snow    
T = Trace of Precipitation, MM = Missing Value Source: NWS Daily Summary

Daily Weather History Graph

Daily Weather History Graph

Search for Another Location

Airport or City:

Trip Planner

Search our weather history database for the weather conditions in past years. The results will help you decide how hot, cold, wet, or windy it might be!

Date:

Astronomy

Nov. 19, 2014 Rise Set
Actual Time 6:50 AM EST 4:19 PM EST
Civil Twilight 6:19 AM EST 4:51 PM EST
Nautical Twilight 5:43 AM EST 5:26 PM EST
Astronomical Twilight 5:09 AM EST 6:01 PM EST
Moon 3:37 AM EST (11/19) 2:52 PM EST (11/19)
Length of Visible Light 10h 32m
Length of Day
9h 28m
Waning Crescent, 9% of the Moon is Illuminated
Nov 19
Waning Crescent
Nov 22
New
Nov 29
First Quarter
Dec 6
Full
Dec 14
Last Quarter

Hourly Weather History & Observations

Time (EST) Temp. Windchill Dew Point Humidity Pressure Visibility Wind Dir Wind Speed Gust Speed Precip Events Conditions
12:51 AM 19.9 °F 8.6 °F 6.1 °F 55% 29.81 in 10.0 mi SSW 10.4 mph 21.9 mph N/A   Overcast
1:51 AM 19.9 °F 7.9 °F 8.1 °F 60% 29.83 in 10.0 mi SW 11.5 mph 23.0 mph N/A   Overcast
2:27 AM 19.9 °F 5.2 °F 10.0 °F 65% 29.78 in 3.0 mi SW 17.3 mph 28.8 mph 0.00 in Snow Light Snow
2:49 AM 19.4 °F 4.5 °F 10.4 °F 68% 29.79 in 2.5 mi SSW 17.3 mph 23.0 mph 0.00 in Snow Light Snow
2:51 AM 19.0 °F 5.6 °F 10.9 °F 71% 29.85 in 2.5 mi SW 13.8 mph 23.0 mph 0.00 in Snow Light Snow
3:04 AM 19.0 °F 6.8 °F 12.0 °F 74% 29.79 in 3.0 mi SSW 11.5 mph 17.3 mph 0.00 in Snow Light Snow
3:20 AM 19.9 °F 7.9 °F 12.0 °F 71% 29.79 in 3.0 mi SW 11.5 mph 20.7 mph 0.00 in Snow Light Snow
3:51 AM 19.9 °F 8.6 °F 12.0 °F 71% 29.87 in 5.0 mi WSW 10.4 mph 23.0 mph 0.00 in Snow Light Snow
4:18 AM 19.9 °F 7.3 °F 12.9 °F 74% 29.83 in 3.0 mi WSW 12.7 mph 27.6 mph 0.00 in Snow Light Snow
4:26 AM 19.9 °F 11.1 °F 12.9 °F 74% 29.84 in 2.5 mi Variable 6.9 mph 24.2 mph 0.00 in Snow Light Snow
4:46 AM 19.4 °F 7.2 °F 14.0 °F 80% 29.86 in 1.5 mi West 11.5 mph 21.9 mph 0.00 in Snow Light Snow
4:51 AM 19.9 °F 9.3 °F 14.0 °F 78% 29.93 in 1.2 mi West 9.2 mph 21.9 mph 0.00 in Snow Light Snow
4:54 AM 19.9 °F 9.3 °F 14.0 °F 78% 29.87 in 1.0 mi West 9.2 mph 21.9 mph 0.00 in Snow Light Snow
5:37 AM 19.9 °F 12.1 °F 16.0 °F 85% 29.90 in 0.8 mi WNW 5.8 mph - 0.00 in Snow Light Snow
5:51 AM 19.9 °F 11.1 °F 16.0 °F 85% 29.98 in 0.5 mi WSW 6.9 mph - 0.01 in Fog , Snow Snow
6:33 AM 19.9 °F 11.1 °F 17.1 °F 89% 29.94 in 0.8 mi West 6.9 mph - 0.02 in Snow Light Snow
6:42 AM 19.9 °F 14.9 °F 17.1 °F 89% 29.95 in 1.0 mi West 3.5 mph - 0.02 in Snow Light Snow
6:51 AM 19.9 °F 13.4 °F 17.1 °F 89% 30.02 in 1.2 mi WSW 4.6 mph - 0.02 in Snow Light Snow
7:02 AM 19.9 °F - 17.1 °F 89% 29.96 in 0.8 mi Calm Calm - 0.00 in Snow Light Snow
7:12 AM 19.9 °F - 16.0 °F 85% 29.97 in 1.2 mi Calm Calm - 0.00 in Snow Light Snow
7:21 AM 19.9 °F - 16.0 °F 85% 29.97 in 2.0 mi Calm Calm - 0.00 in Snow Light Snow
7:26 AM 19.9 °F - 16.0 °F 85% 29.98 in 3.0 mi Calm Calm - 0.00 in Snow Light Snow
7:51 AM 18.0 °F - 15.1 °F 88% 30.06 in 10.0 mi Calm Calm - 0.00 in   Mostly Cloudy
8:19 AM 21.0 °F 13.4 °F 15.1 °F 78% 30.01 in 10.0 mi West 5.8 mph - N/A   Mostly Cloudy
8:38 AM 21.9 °F 14.5 °F 15.1 °F 75% 30.01 in 10.0 mi West 5.8 mph - N/A   Scattered Clouds
8:51 AM 21.9 °F 14.5 °F 15.1 °F 75% 30.08 in 10.0 mi SW 5.8 mph - N/A   Clear
9:51 AM 24.1 °F 14.4 °F 12.0 °F 60% 30.09 in 9.0 mi West 9.2 mph - N/A   Partly Cloudy
10:51 AM 24.1 °F 15.2 °F 10.9 °F 57% 30.10 in 10.0 mi West 8.1 mph - N/A   Partly Cloudy
11:51 AM 26.1 °F 20.5 °F 10.9 °F 53% 30.09 in - West 4.6 mph - N/A   Unknown
12:51 PM 26.1 °F 16.8 °F 10.0 °F 51% 30.08 in 10.0 mi SSW 9.2 mph - N/A   Scattered Clouds
1:51 PM 26.1 °F 18.4 °F 10.0 °F 51% 30.08 in 10.0 mi SSW 6.9 mph - N/A   Mostly Cloudy
2:51 PM 25.0 °F 14.2 °F 10.9 °F 55% 30.09 in 10.0 mi SSW 11.5 mph - N/A   Overcast
3:51 PM 24.1 °F 16.0 °F 12.9 °F 62% 30.08 in 5.0 mi SSW 6.9 mph - 0.00 in Snow Light Snow
4:51 PM 21.9 °F 11.7 °F 10.0 °F 60% 30.08 in 10.0 mi SSE 9.2 mph - 0.00 in   Scattered Clouds
5:51 PM 21.0 °F 10.6 °F 8.1 °F 57% 30.07 in 10.0 mi South 9.2 mph - N/A   Clear
6:51 PM 19.0 °F 11.1 °F 6.1 °F 57% 30.07 in 10.0 mi South 5.8 mph - N/A   Clear
7:51 PM 19.0 °F 12.3 °F 7.0 °F 59% 30.05 in 10.0 mi SSW 4.6 mph - N/A   Overcast
8:51 PM 18.0 °F - 8.1 °F 65% 30.04 in 10.0 mi Calm Calm - N/A   Mostly Cloudy
9:51 PM 21.0 °F 14.6 °F 6.1 °F 53% 30.03 in 10.0 mi SSW 4.6 mph - N/A   Overcast
10:51 PM 21.0 °F 16.2 °F 7.0 °F 55% 30.01 in 10.0 mi SSE 3.5 mph - N/A   Overcast
11:51 PM 21.9 °F 10.4 °F 7.0 °F 53% 29.98 in 10.0 mi South 11.5 mph - N/A   Mostly Cloudy